Location: Innsbruck
(47.2657°N, 11.3914°E)
Time: 00:41:08
(UTC+02:00)

Nauka - Pass Details

Date: 25 September 2021
Orbit: 417 x 423 km, 51.6° (Epoch: 16 October)

Event Time Altitude Azimuth Distance (km) Brightness Sun altitude
Rises 20:06:03 0° 275° (W) 2,362 ? -11.0°
Reaches altitude 10° 20:08:14 10° 284° (WNW) 1,499 ? -11.4°
Maximum altitude 20:11:24 38° 355° (N) 655 ? -11.9°
Enters shadow 20:13:57 14° 61° (ENE) 1,264 ? -12.3°
